[[{"header":{"parameterUnit":"m.s-1","parameterCategory":1,"la1":30.2991,"la2":30.254,"lo1":-89.0895,"lo2":-89.0444,"dy":0.0017,"dx":0.0017,"nx":28,"ny":28,"refTime":"2023-08-12T03:00:00:Z","depth":0,"parameterNumber":2,"parameterNumberName":"U-component_of_WINDS"},"data":[0,0,0,0,0,0,0,0,0,0,0,0,0,0,0,0,0,0,0,0,0,0,0,0,0,0,0,0,0,0,0,0,0,0,0,0,0,0,0,0,0,0,0,0,0,0,0,0,0,0,0,0,0,0,0,0,0,0,1.0618,1.0619,0,1.0716,1.0717,1.0718,1.0742,1.0742,1.0741,1.0741,1.0843,1.0846,1.085,0,0,0,0,0,0,0,0,0,0,0,0,0,1.0453,1.0456,1.0618,1.0619,1.062,1.0716,1.0717,1.0718,1.0743,1.0742,1.0741,1.074,1.0842,1.0846,1.085,0,0,0,0,0,0,0,0,0,0,0,0,0,1.0535,1.0457,1.0618,1.0644,1.0647,1.0715,1.0717,1.0719,1.0743,1.0742,1.0741,1.074,1.0841,1.0846,1.0851,1.09,0,0,1.0866,1.0868,0,0,0,0,0,0,0,0,1.0531,1.0541,1.0639,1.0642,1.0646,1.0716,1.0697,1.078,1.0743,1.0707,1.0741,1.074,1.0802,1.081,1.083,1.0905,1.091,1.0866,1.0869,1.0871,1.0873,0,0,0,0,0,0,0,1.0525,1.0537,1.0657,1.064,1.0645,1.0651,1.0662,1.0712,1.0758,1.071,1.0712,1.0723,1.0804,1.0826,1.0833,1.0911,1.0866,1.0871,1.0874,1.0876,1.103,1.1031,0,0,0,0,0,0,1.0514,1.0532,1.0654,1.066,1.0585,1.0655,1.0667,1.0694,1.0758,1.0767,1.0723,1.0724,1.0818,1.0827,1.0837,1.0898,1.0871,1.0876,1.0879,1.1029,1.103,1.1031,0,0,0,0,0,0,1.0511,1.0525,1.065,1.0597,1.0613,1.0659,1.069,1.0697,1.0719,1.0768,1.0777,1.0737,1.0817,1.083,1.0884,1.0902,1.0878,1.0883,1.1028,1.1029,1.1031,1.1021,0,0,0,0,0,0,1.0506,1.0524,1.0543,1.0597,1.0616,1.0695,1.0691,1.07,1.0727,1.0728,1.0784,1.0792,1.0817,1.0876,1.0889,1.0908,1.0887,1.1026,1.1028,1.103,1.102,1.1022,1.1024,0,0,0,0,0,1.05,1.0537,1.0544,1.0558,1.064,1.0696,1.0707,1.0734,1.0728,1.0748,1.078,1.079,1.0898,1.0882,1.0896,1.0917,1.1025,1.1028,1.103,1.1019,1.1022,1.1024,0,0,0,0,0,0,1.0485,1.0545,1.0553,1.0608,1.0646,1.07,1.0725,1.0737,1.0778,1.0777,1.0811,1.0823,1.0875,1.0902,1.0882,1.0968,1.0962,1.0967,1.0948,1.0951,1.0953,1.0946,1.0891,0,0,0,0,0,1.0488,1.0527,1.0578,1.0622,1.064,1.0679,1.0705,1.0723,1.0764,1.0781,1.0816,1.0857,1.0899,1.0927,1.0969,1.1024,1.1036,1.1046,1.1048,1.1049,1.1054,1.1083,1.1088,1.104,1.104,1.104,0,0,1.0495,1.0532,1.0555,1.062,1.0651,1.0691,1.0693,1.0736,1.0766,1.0788,1.084,1.0867,1.0915,1.0969,1.0995,1.0993,1.107,1.1053,1.1053,1.1057,1.1086,1.1091,1.1095,1.1041,1.1041,1.1041,0,0,1.0527,1.056,1.06,1.0631,1.0679,1.0705,1.0714,1.0765,1.0784,1.0837,1.0854,1.089,1.0964,1.0996,1.1022,1.1066,1.1076,1.1079,1.1089,1.1118,1.1122,1.1125,1.1139,1.1144,1.1083,1.1083,1.1083,0,1.053,1.0591,1.0619,1.066,1.0688,1.0708,1.0748,1.0778,1.0837,1.0856,1.0853,1.0944,1.0977,1.1039,1.1049,1.107,1.1081,1.1072,1.1119,1.1122,1.1126,1.114,1.1146,1.1083,1.1083,1.1083,1.1083,0,1.0591,1.0633,1.0659,1.0714,1.0745,1.0786,1.082,1.0848,1.0863,1.0888,1.0942,1.0982,1.1032,1.1048,1.1064,1.1112,1.1109,1.1112,1.1106,1.113,1.1144,1.115,1.1082,1.1082,1.1082,1.1082,0,0,1.0617,1.0687,1.0696,1.0721,1.0774,1.0807,1.0849,1.0897,1.0919,1.0959,1.0994,1.1055,1.1058,1.1087,1.1107,1.1132,1.1162,1.1132,1.1133,1.1135,1.1215,1.1212,1.1218,1.117,1.1171,1.1172,1.1211,0,1.0656,1.0729,1.0755,1.0816,1.0855,1.0874,1.091,1.0947,1.0972,1.1008,1.1036,1.1078,1.1079,1.1096,1.1122,1.1153,1.1178,1.115,1.1202,1.1204,1.1189,1.1225,1.1223,1.1258,1.1217,1.1218,1.1218,0,1.0711,1.075,1.0814,1.0862,1.0879,1.0911,1.0956,1.0991,1.1032,1.1049,1.1081,1.1098,1.1142,1.1133,1.1194,1.1174,1.1197,1.1215,1.1217,1.1223,1.1212,1.1231,1.127,1.1275,1.1227,1.1227,1.1226,0,1.0722,1.0791,1.0838,1.0859,1.0916,1.0938,1.0963,1.1003,1.103,1.107,1.1087,1.1132,1.1157,1.1191,1.122,1.1211,1.1277,1.1271,1.1291,1.129,1.1304,1.1303,1.1346,1.132,1.132,1.132,1.132,0,1.0762,1.08,1.0844,1.0873,1.0916,1.0945,1.0988,1.1014,1.105,1.1084,1.1104,1.1136,1.1172,1.1208,1.1231,1.1277,1.1288,1.1303,1.1308,1.13,1.1298,1.1315,1.1313,1.1321,1.1321,1.1321,1.132,0,1.0781,1.0812,1.0865,1.0914,1.0927,1.0957,1.0999,1.1028,1.1053,1.1096,1.1108,1.1148,1.1191,1.1223,1.1281,1.1296,1.1344,1.1351,1.133,1.1332,1.135,1.1348,1.1406,1.1415,1.1383,1.1383,1.1383,0,1.0804,1.0834,1.0886,1.091,1.0934,1.0973,1.1,1.103,1.1057,1.1106,1.1129,1.1173,1.1211,1.128,1.1314,1.1357,1.1364,1.1382,1.1371,1.1362,1.1363,1.1361,1.1363,1.1383,1.1383,1.1383,1.1383,0,1.0841,1.0855,1.0893,1.0935,1.0967,1.1002,1.1038,1.1056,1.1093,1.1122,1.1167,1.1196,1.1253,1.1297,1.1343,1.1369,1.1382,1.1386,1.1393,1.1385,1.1371,1.1378,1.1333,1.1385,1.1385,1.1385,1.1384,1.1384,1.0863,1.089,1.093,1.0971,1.1001,1.1033,1.1062,1.1091,1.1128,1.1176,1.1192,1.1237,1.1278,1.1341,1.1367,1.1403,1.1403,1.1413,1.1416,1.1417,1.1416,1.1366,1.1412,1.1412,1.1412,1.1412,1.1412,0,1.09,1.0927,1.0964,1.1013,1.1045,1.1054,1.1093,1.112,1.1159,1.1195,1.1231,1.1281,1.1324,1.1361,1.1405,1.1427,1.1433,1.1437,1.1435,1.1441,1.1415,1.1404,1.143,1.143,1.143,1.143,1.143,1.143,1.0923,1.0968,1.0986,1.1046,1.1073,1.1117,1.1139,1.1169,1.1198,1.1252,1.1287,1.1311,1.1347,1.1394,1.1433,1.1443,1.1458,1.1459,1.1471,1.1445,1.1443,1.1441,1.1431,1.1463,1.1463,1.1494,1.1494,1.1494]},{"header":{"parameterUnit":"m.s-1","parameterCategory":1,"la1":30.2991,"la2":30.254,"lo1":-89.0895,"lo2":-89.0444,"dy":0.0017,"dx":0.0017,"nx":28,"ny":28,"refTime":"2023-08-12T03:00:00:Z","depth":0,"parameterNumber":3,"parameterNumberName":"V-component_of_WINDS"},"data":[0,0,0,0,0,0,0,0,0,0,0,0,0,0,0,0,0,0,0,0,0,0,0,0,0,0,0,0,0,0,0,0,0,0,0,0,0,0,0,0,0,0,0,0,0,0,0,0,0,0,0,0,0,0,0,0,0,0,4.3293,4.3293,0,4.3269,4.3269,4.3268,4.3274,4.3274,4.3275,4.3275,4.3245,4.3244,4.3243,0,0,0,0,0,0,0,0,0,0,0,0,0,4.3338,4.3337,4.3293,4.3292,4.3292,4.3269,4.3269,4.3268,4.3274,4.3274,4.3275,4.3275,4.3246,4.3244,4.3243,0,0,0,0,0,0,0,0,0,0,0,0,0,4.3316,4.3337,4.3293,4.3292,4.3292,4.3269,4.3269,4.3268,4.3274,4.3274,4.3275,4.3276,4.3246,4.3245,4.3243,4.3217,0,0,4.3237,4.3236,0,0,0,0,0,0,0,0,4.3318,4.3315,4.3293,4.3292,4.3292,4.3275,4.3274,4.3251,4.3273,4.328,4.3275,4.3276,4.3254,4.3252,4.3246,4.3216,4.3215,4.3237,4.3236,4.3235,4.3235,0,0,0,0,0,0,0,4.3319,4.3316,4.3283,4.3292,4.3292,4.3291,4.3289,4.3269,4.3264,4.328,4.328,4.3278,4.3254,4.3248,4.3245,4.3214,4.3237,4.3235,4.3234,4.3234,4.3161,4.316,0,0,0,0,0,0,4.3322,4.3317,4.3284,4.3282,4.3307,4.329,4.3287,4.328,4.3264,4.3262,4.3277,4.3278,4.325,4.3247,4.3244,4.3212,4.3235,4.3233,4.3232,4.3162,4.316,4.316,0,0,0,0,0,0,4.3322,4.3319,4.3285,4.33,4.3296,4.3289,4.328,4.3279,4.3272,4.3262,4.326,4.3271,4.3251,4.3247,4.3224,4.3211,4.3233,4.3231,4.3162,4.3161,4.316,4.3149,0,0,0,0,0,0,4.3324,4.3319,4.3311,4.33,4.3295,4.3267,4.3279,4.3278,4.327,4.3271,4.3256,4.3254,4.3251,4.3227,4.3222,4.3209,4.3229,4.3164,4.3162,4.316,4.3151,4.3148,4.3145,0,0,0,0,0,4.3325,4.3308,4.331,4.3306,4.3284,4.3266,4.3263,4.3261,4.3269,4.3259,4.3252,4.3255,4.3214,4.3224,4.3219,4.3206,4.3164,4.3162,4.3161,4.3152,4.3148,4.3145,0,0,0,0,0,0,4.3315,4.3306,4.3309,4.3287,4.3278,4.3267,4.3255,4.3258,4.3244,4.3246,4.3242,4.3239,4.3215,4.3208,4.322,4.3179,4.319,4.3187,4.3185,4.3182,4.3179,4.3181,4.3228,0,0,0,0,0,4.3311,4.3299,4.3291,4.3272,4.3268,4.3262,4.3254,4.3254,4.3243,4.3238,4.323,4.3218,4.3202,4.3191,4.3176,4.315,4.3146,4.3138,4.3135,4.3133,4.313,4.3114,4.311,4.3153,4.3153,4.3153,0,0,4.3301,4.3295,4.3287,4.327,4.3263,4.3248,4.3259,4.3243,4.3232,4.3235,4.3214,4.3207,4.3193,4.3168,4.3156,4.3161,4.3117,4.3131,4.3129,4.3127,4.3112,4.3107,4.3104,4.3152,4.3152,4.3153,0,0,4.3276,4.3271,4.3254,4.3247,4.3236,4.3232,4.3228,4.3218,4.3214,4.3192,4.3194,4.318,4.3153,4.3143,4.3134,4.3104,4.3105,4.3099,4.3084,4.3069,4.3065,4.3062,4.305,4.3046,4.3096,4.3096,4.3096,0,4.3265,4.3245,4.3245,4.323,4.3221,4.3226,4.3208,4.32,4.3184,4.3177,4.3183,4.3149,4.314,4.3112,4.3105,4.3098,4.3092,4.31,4.3066,4.3063,4.306,4.3049,4.3044,4.3096,4.3096,4.3096,4.3096,0,4.3231,4.3217,4.3205,4.3191,4.3182,4.3165,4.3161,4.3151,4.3151,4.3146,4.3123,4.3112,4.3095,4.3088,4.3087,4.3059,4.3063,4.3068,4.3078,4.3055,4.3044,4.304,4.3094,4.3095,4.3095,4.3095,0,0,4.3199,4.3185,4.3181,4.3174,4.3162,4.315,4.3133,4.3117,4.3108,4.3096,4.3081,4.3058,4.3062,4.3052,4.305,4.3036,4.3012,4.3043,4.3042,4.3036,4.2978,4.2974,4.2969,4.3013,4.3012,4.3011,4.2979,0,4.3172,4.3144,4.3143,4.3116,4.3102,4.3105,4.309,4.308,4.3075,4.306,4.3054,4.3037,4.3045,4.3039,4.3026,4.3018,4.3,4.302,4.2996,4.2995,4.2998,4.2963,4.2959,4.2929,4.2975,4.2974,4.2974,0,4.3136,4.3125,4.3098,4.3087,4.3081,4.3067,4.3052,4.304,4.3027,4.3024,4.3013,4.3013,4.2993,4.3004,4.2976,4.2989,4.2979,4.2974,4.2972,4.2969,4.2982,4.2958,4.292,4.2915,4.2967,4.2968,4.2968,0,4.3114,4.3092,4.3072,4.3067,4.3054,4.3044,4.3038,4.3027,4.3017,4.3003,4.2996,4.298,4.297,4.2956,4.2951,4.296,4.2922,4.2933,4.2917,4.2917,4.2908,4.2908,4.2866,4.2903,4.2903,4.2903,4.2903,0,4.3083,4.3066,4.3062,4.305,4.303,4.3028,4.3008,4.3002,4.2992,4.2977,4.2978,4.2964,4.2958,4.2942,4.2937,4.2913,4.2909,4.2904,4.2903,4.2903,4.2904,4.2896,4.2897,4.2902,4.2902,4.2903,4.2903,0,4.3055,4.3052,4.3031,4.3021,4.3018,4.3003,4.2993,4.298,4.2976,4.2957,4.2952,4.2944,4.2925,4.2918,4.2894,4.2891,4.2863,4.2864,4.2868,4.2867,4.285,4.2852,4.2801,4.2794,4.2837,4.2836,4.2836,0,4.3035,4.3022,4.3011,4.3002,4.2996,4.2981,4.2972,4.2969,4.2959,4.2943,4.2931,4.2913,4.2898,4.2867,4.2858,4.2839,4.2839,4.2823,4.2836,4.2837,4.2837,4.2838,4.2836,4.282,4.2819,4.2819,4.2819,0,4.3,4.2999,4.2986,4.2973,4.2961,4.295,4.2939,4.2931,4.2927,4.2914,4.2896,4.2885,4.2861,4.2842,4.2823,4.2814,4.2815,4.2815,4.281,4.281,4.2812,4.2809,4.2859,4.2815,4.2816,4.2816,4.2816,4.2816,4.2974,4.2962,4.2953,4.2938,4.2929,4.2919,4.2906,4.29,4.2886,4.2868,4.2866,4.2846,4.2832,4.2807,4.2797,4.278,4.2784,4.2777,4.2775,4.2773,4.2771,4.2816,4.2776,4.2776,4.2777,4.2777,4.2777,0,4.2938,4.2932,4.2919,4.2904,4.2891,4.2895,4.2883,4.2872,4.2855,4.2843,4.2829,4.2806,4.2788,4.2777,4.2757,4.2745,4.2745,4.274,4.274,4.2738,4.2769,4.2775,4.2741,4.2741,4.2741,4.2741,4.2741,4.2741,4.2918,4.2897,4.2895,4.287,4.2864,4.2845,4.2838,4.2827,4.2818,4.2794,4.2779,4.2772,4.276,4.274,4.2722,4.2719,4.2711,4.2706,4.2703,4.2732,4.2736,4.2739,4.2745,4.2705,4.2704,4.2673,4.2673,4.2672]}]]